Weather History for EGLC - November, 2013

Change the Weather History Date:

Monday, November 11, 2013

  Actual Average Record
Temperature  
Mean Temperature 47 °F -  
Max Temperature 55 °F 50 °F 59 °F (2010)
Min Temperature 39 °F 43 °F 35 °F (1996)
Degree Days  
Heating Degree Days 18    
Moisture  
Dew Point 46 °F    
Average Humidity 86    
Maximum Humidity 94    
Minimum Humidity 71    
Precipitation  
Precipitation 0.00 in - - ()
Sea Level Pressure  
Sea Level Pressure 30.19 in    
Wind  
Wind Speed 6 mph ()    
Max Wind Speed 14 mph    
Max Gust Speed 26 mph    
Visibility 5.5 miles    
Events Rain    
Averages and records for this station are not official NWS values.
T = Trace of Precipitation, MM = Missing Value Source: Averaged Metar Reports

Daily Weather History Graph

Daily Weather History Graph

Search for Another Location

Airport or City:

Trip Planner

Search our weather history database for the weather conditions in past years. The results will help you decide how hot, cold, wet, or windy it might be!

Date:

Astronomy

Nov. 11, 2013 Rise Set
Actual Time 7:11 AM GMT 4:15 PM GMT
Civil Twilight 6:34 AM GMT 4:52 PM GMT
Nautical Twilight 5:54 AM GMT 5:32 PM GMT
Astronomical Twilight 5:15 AM GMT 6:11 PM GMT
Moon 1:27 PM GMT (11/11) No Moon Set
Length of Visible Light 10h 17m
Length of Day
9h 04m
Waxing Gibbous, 64% of the Moon is Illuminated
Nov 11
Waxing Gibbous
Nov 17
Full
Nov 25
Last Quarter
Dec 3
New
Dec 9
First Quarter

Hourly Weather History & Observations

Time (GMT) Temp. Windchill Dew Point Humidity Pressure Visibility Wind Dir Wind Speed Gust Speed Precip Events Conditions
12:20 AM 41.0 °F - 35.6 °F 81% 30.27 in 6.2 mi Variable 2.3 mph - N/A   Unknown
12:50 AM 41.0 °F 39.0 °F 37.4 °F 87% 30.27 in 6.2 mi NW 3.5 mph - N/A   Unknown
1:20 AM 41.0 °F 39.0 °F 35.6 °F 81% 30.27 in 6.2 mi Variable 3.5 mph - N/A   Unknown
1:50 AM 39.2 °F 35.0 °F 35.6 °F 87% 30.27 in 6.2 mi East 5.8 mph - N/A   Unknown
2:20 AM 39.2 °F 34.2 °F 33.8 °F 81% 30.24 in 6.2 mi East 6.9 mph - N/A   Unknown
2:50 AM 41.0 °F 39.0 °F 35.6 °F 81% 30.24 in 6.2 mi Variable 3.5 mph - N/A   Unknown
3:20 AM 41.0 °F 39.0 °F 35.6 °F 81% 30.24 in 6.2 mi Variable 3.5 mph - N/A   Unknown
3:50 AM 44.6 °F 41.4 °F 37.4 °F 76% 30.24 in 6.2 mi ESE 5.8 mph - N/A   Unknown
4:20 AM 42.8 °F 38.6 °F 37.4 °F 81% 30.21 in 6.2 mi East 6.9 mph - N/A   Unknown
4:50 AM 42.8 °F 39.3 °F 37.4 °F 81% 30.21 in 6.2 mi ESE 5.8 mph - N/A   Unknown
5:20 AM 44.6 °F 41.4 °F 39.2 °F 81% 30.21 in 6.2 mi ESE 5.8 mph - N/A Rain Rain
5:50 AM 44.6 °F 42.2 °F 39.2 °F 81% 30.21 in 6.2 mi East 4.6 mph - N/A Rain Rain
6:20 AM 48.2 °F - 41.0 °F 76% 30.21 in 6.2 mi South 5.8 mph - N/A   Mostly Cloudy
6:50 AM 50.0 °F - 41.0 °F 71% 30.21 in 6.2 mi South 8.1 mph - N/A Rain Light Rain Showers
7:20 AM 50.0 °F - 42.8 °F 76% 30.21 in 6.2 mi South 8.1 mph - N/A Rain Light Rain Showers
7:50 AM 50.0 °F - 42.8 °F 76% 30.21 in 6.2 mi South 9.2 mph - N/A   Partly Cloudy
8:20 AM 50.0 °F - 44.6 °F 82% 30.21 in 6.2 mi South 11.5 mph - N/A   Mostly Cloudy
9:20 AM 50.0 °F - 44.6 °F 82% 30.21 in 6.2 mi SSW 10.4 mph - N/A   Mostly Cloudy
9:50 AM 51.8 °F - 44.6 °F 76% 30.18 in 6.2 mi SSW 13.8 mph 26.5 mph N/A   Mostly Cloudy
10:20 AM 51.8 °F - 46.4 °F 82% 30.18 in 6.2 mi South 11.5 mph - N/A   Mostly Cloudy
11:20 AM 51.8 °F - 48.2 °F 88% 30.18 in 6.2 mi South 9.2 mph - N/A   Mostly Cloudy
11:50 AM 51.8 °F - 48.2 °F 88% 30.18 in 4.3 mi South 10.4 mph - N/A   Mostly Cloudy
12:20 PM 53.6 °F - 50.0 °F 88% 30.18 in 3.7 mi South 11.5 mph - N/A Rain Light Rain
12:50 PM 53.6 °F - 50.0 °F 88% 30.15 in 5.0 mi South 10.4 mph - N/A Rain Light Rain
1:20 PM 53.6 °F - 50.0 °F 88% 30.15 in 5.0 mi South 10.4 mph - N/A   Mostly Cloudy
1:50 PM 53.6 °F - 50.0 °F 88% 30.15 in 5.0 mi SSW 9.2 mph - N/A   Mostly Cloudy
2:20 PM 53.6 °F - 50.0 °F 88% 30.15 in 5.0 mi SSW 9.2 mph - N/A   Mostly Cloudy
2:50 PM 55.4 °F - 51.8 °F 88% 30.15 in 4.3 mi SSW 9.2 mph - N/A Rain Light Rain
3:20 PM 55.4 °F - 51.8 °F 88% 30.15 in 3.1 mi SSW 8.1 mph - N/A Rain Light Rain
3:50 PM 53.6 °F - 51.8 °F 94% 30.15 in 3.1 mi SSW 6.9 mph - N/A Rain Light Rain
4:20 PM 53.6 °F - 51.8 °F 94% 30.15 in 2.5 mi SSW 6.9 mph - N/A   Light Drizzle
4:50 PM 53.6 °F - 51.8 °F 94% 30.15 in 6.2 mi SSW 6.9 mph - N/A   Mostly Cloudy
5:20 PM 55.4 °F - 51.8 °F 88% 30.15 in 6.2 mi SSW 8.1 mph - N/A   Light Drizzle
5:50 PM 55.4 °F - 51.8 °F 88% 30.15 in 6.2 mi SSW 6.9 mph - N/A   Light Drizzle
6:20 PM 55.4 °F - 51.8 °F 88% 30.18 in 5.6 mi SW 8.1 mph - N/A   Mostly Cloudy
6:50 PM 55.4 °F - 51.8 °F 88% 30.15 in 6.2 mi South 9.2 mph - N/A   Light Drizzle
7:20 PM 55.4 °F - 51.8 °F 88% 30.18 in 6.2 mi SSW 9.2 mph - N/A   Mostly Cloudy
7:50 PM 55.4 °F - 51.8 °F 88% 30.18 in 6.2 mi SW 9.2 mph - N/A   Mostly Cloudy
8:20 PM 55.4 °F - 53.6 °F 94% 30.18 in - SSW 8.1 mph - N/A   Light Drizzle
8:50 PM 55.4 °F - 53.6 °F 94% 30.18 in 4.3 mi SSW 5.8 mph - N/A   Light Drizzle
9:20 PM 55.4 °F - 53.6 °F 94% 30.18 in 6.2 mi SW 4.6 mph - N/A   Mostly Cloudy
9:50 PM 55.4 °F - 53.6 °F 94% 30.18 in 6.2 mi SW 4.6 mph - N/A   Mostly Cloudy
10:20 PM 55.4 °F - 53.6 °F 94% 30.18 in 3.1 mi SW 5.8 mph - N/A   Mostly Cloudy
10:50 PM 55.4 °F - 53.6 °F 94% 30.15 in 3.7 mi SW 4.6 mph - N/A   Overcast
11:20 PM 55.4 °F - 53.6 °F 94% 30.15 in 5.6 mi SW 4.6 mph - N/A   Mostly Cloudy
11:50 PM 55.4 °F - 53.6 °F 94% 30.15 in 5.0 mi SW 4.6 mph - N/A   Mostly Cloudy